星链-4205 (STARLINK-4205 )

导读

STARLINK-4205是美国SpaceX公司星链(Starlink)星座的成员卫星,于2022年7月17日发射。作为低轨互联网星座的组网卫星,它依托星链技术改造,支持高速低延迟互联,配备星链迷你激光链路,可实现最远4000公里25Gbps传输速率,为全球偏远地区提供宽带互联网服务,目前运行在约548公里高度的近地轨道,总质量约297千克。

基本信息
目录编号:
53174
目录名称:
STARLINK-4205
国际标识:
2022-083AU
轨道中心:
EARTH
卫星名称:
星链-4205
卫星全名:
星链-4205 (STARLINK-4205 )
卫星状态:
在轨 (已飞行1510 天)
发射日期:
2022-07-17 UTC
国别 :
美国 (US)
星等 :
--
轨道信息
数据来源 国际轨道数据
星历时间: 2026-09-03T03:08:40+0800
1天前
查看轨道信息
半长轴: 6848.877km
偏心率: 0.000122
轨道倾角: 53.160°
近地点辐角 92.793°
升交点赤经 86.357°
平近点角 267.321°
近地点: 469.904km
远地点: 471.576km
周期: 94.013分钟
每日圈数: 15.317003
详细信息
固有亮度:
5
最大亮度:
2.5
卫星平台:
Starlink v1.5
覆盖范围:
全球
运营商:
太空探索技术公司
运营商所在国:
美国
制造商(研发单位):
太空探索技术公司
制造商所在国:
美国
使用方式:
暂无
卫星简介
星链(Starlink)计划是由太空探索技术公司(SpaceX)提出的一个巨型低轨卫星互联网星座项目,计划在2019年至2024年间在太空搭建由约1.2万颗卫星组成的“星链”网络,其中1584颗将部署在地球上空550千米处的近地轨道,并从2020年开始工作。该卫星仍在工作。
2D轨道图
3D轨道图
轨道高度分析图
轨道倾角分析图
轨道综合分析图
查看轨道综合分析图
交会数据列表
事件ID 空间交会对象 最接近时刻(TCA) 交会距离 交会风险概率(CRP) 交会风险指数(CRI) 操作
CDM_260904-103004-748605-317422
2026-09-04T
10:30:03+0000
2.668 km
极远距离
1.548228E-6 低风险 0.39
CDM_260903-052605-317406-767221
2026-09-03T
05:26:12+0000
2.710 km
极远距离
1.528233E-6 低风险 0.39
CDM_260905-060305-317406-766121
2026-09-05T
06:03:35+0000
2.810 km
极远距离
1.437278E-6 低风险 0.38
CDM_260903-163205-317406-753621
2026-09-03T
16:32:06+0000
2.765 km
极远距离
1.055621E-6 低风险 0.35
CDM_260903-162305-317406-902922
2026-09-03T
16:23:33+0000
2.843 km
极远距离
8.693721E-7 极低风险 0.34